Location: Unspecified
(0.0000°N, 0.0000°E)
Time: 06:41:44
(UTC+00:00)

ITAMSAT 1 - Pass Details

Date: 11 December 2017
Orbit: 784 x 796 km, 98.9° (Epoch: 22 June)

Event Time Altitude Azimuth Distance (km) Brightness Sun altitude
Exits shadow 04:09:21 12° 220° (SW) 2,189 9.8 -23.8°
Drops below altitude 10° 04:09:47 10° 218° (SW) 2,342 10.0 -23.7°
Sets 04:12:17 0° 209° (SSW) 3,273 10.8 -23.1°
